This demonstration page uses our WeatherBlox Daily Observations layout. Learn more.

Left ArrowRight Arrow

39.92423, -83.80882

Hourly Observations for January 13, 2015

Temp ( °F °C ) Dew Point ( °F °C ) Humidity (%) Winds ( mph kmh ) Pressure ( in mb ) Visibility ( mi km ) Precip ( " mm )
12:56 am 00:56 Cloudy 20 -6.6 15 -9.4 81 81 NE 16 26 30.54 1034 10 16 0.00 0.00
1:56 am 01:56 Cloudy 20 -6.6 15 -9.4 81 81 NE 16 26 30.56 1035 10 16 0.00 0.00
2:56 am 02:56 Cloudy 19 -7.2 15 -9.4 84 84 NNE 12 19 30.59 1036 9 14 0.00 0.03
3:56 am 03:56 Cloudy with Light Snow 19 -7.2 15 -9.4 84 84 NNE 16 26 30.59 1036 8 13 0.00 0.03
4:56 am 04:56 Cloudy with Light Snow 18 -7.7 14 -10 84 84 NE 13 20 30.61 1037 8 13 0.00 0.03
5:15 am 05:15 Mostly Cloudy 18 -8 12 -11 79 79 NNE 12 19 30.65 1038 8 13 0.00 0.03
5:29 am 05:29 Partly Cloudy 16 -9 12 -11 86 86 NE 10 17 30.68 1039 10 16 0.00 0.03
5:56 am 05:56 Mostly Cloudy with Light Snow 16 -8.8 12 -11.1 84 84 NE 10 17 30.63 1037 9 14 0.00 0.03
6:14 am 06:14 Cloudy with Light Snow 16 -9 12 -11 86 86 NNE 13 20 30.68 1039 7 11 0.00 0.03
6:40 am 06:40 Cloudy 16 -9 12 -11 86 86 NE 12 19 30.68 1039 8 13 0.00 0.03
6:56 am 06:56 Cloudy 15 -9.4 12 -11.1 88 88 NE 14 22 30.63 1037 8 13 0.00 0.03
7:05 am 07:05 Cloudy with Light Snow 16 -9 12 -11 86 86 NNE 14 22 30.68 1039 8 13 0.00 0.03
7:56 am 07:56 Mostly Cloudy 13 -10.5 10 -12.2 87 87 NE 12 19 30.66 1038 7 11 0.00 0.03
8:07 am 08:07 Partly Cloudy 12 -11 10 -12 92 92 NE 12 19 30.71 1040 8 13 0.00 0.00
8:25 am 08:25 Mostly Cloudy 12 -11 10 -12 92 92 NE 10 17 30.71 1040 7 11 0.00 0.00
8:34 am 08:34 Mostly Cloudy 12 -11 10 -12 92 92 NE 13 20 30.71 1040 7 11 0.00 0.00
8:45 am 08:45 Mostly Sunny 14 -10 10 -12 85 85 NE 12 19 30.71 1040 8 13 0.00 0.00
8:56 am 08:56 Sunny 14 -10 10 -12.2 84 84 NE 14 22 30.65 1038 8 13 0.00 0.00
9:56 am 09:56 Sunny 17 -8.3 10 -12.2 74 74 ENE 14 22 30.67 1039 8 13 0.00 0.00
10:56 am 10:56 Mostly Sunny 18 -7.7 11 -11.6 74 74 NE 15 24 30.66 1038 9 14 0.00 0.00
11:56 am 11:56 Sunny 19 -7.2 11 -11.6 71 71 ENE 10 17 30.63 1037 8 13 0.00 0.00
12:56 pm 12:56 Sunny 20 -6.6 12 -11.1 71 71 ENE 10 17 30.60 1036 8 13 0.00 0.00
1:56 pm 13:56 Sunny 22 -5.5 13 -10.5 68 68 NE 12 19 30.58 1036 8 13 0.00 0.00
2:56 pm 14:56 Sunny 22 -5.5 12 -11.1 65 65 ENE 9 15 30.56 1035 8 13 0.00 0.00
3:56 pm 15:56 Sunny 21 -6.1 13 -10.5 71 71 ENE 12 19 30.55 1034 8 13 0.00 0.00
4:56 pm 16:56 Sunny 19 -7.2 12 -11.1 74 74 NE 9 15 30.55 1034 8 13 0.00 0.00
5:56 pm 17:56 Clear 16 -8.8 11 -11.6 80 80 ENE 9 15 30.55 1035 9 14 0.00 0.00
6:56 pm 18:56 Clear 14 -10 9 -12.7 81 81 VRB 7 11 30.54 1034 9 14 0.00 0.00
7:56 pm 19:56 Clear 12 -11.1 8 -13.3 84 84 ENE 9 15 30.54 1034 9 14 0.00 0.00
8:56 pm 20:56 Clear 11 -11.6 7 -13.8 84 84 ESE 8 13 30.51 1033 9 14 0.00 0.00
9:56 pm 21:56 Clear 10 -12.2 6 -14.4 84 84 SE 7 11 30.49 1033 9 14 0.00 0.00
10:56 pm 22:56 Clear 9 -12.7 6 -14.4 87 87 SE 6 9 30.48 1032 9 14 0.00 0.00
11:56 pm 23:56 Clear 8 -13.3 5 -15 87 87 SSE 5 7 30.45 1031 9 14 0.00 0.00

Powered by AerisWeather